Liberia, Costa Rica

12:47 AM CST on June 26, 2017 (GMT -0600)
Daniel Oduber Quiros International

Weather History for MRLB - April, 2014

Change the Weather History Date:

Friday, April 18, 2014

  Actual Average Record
Temperature  
Mean Temperature 82 °F -  
Max Temperature 96 °F 91 °F 100 °F (1998)
Min Temperature 67 °F 76 °F 67 °F (2014)
Cooling Degree Days 16    
Growing Degree Days 32 (Base 50)    
Moisture  
Dew Point 63 °F    
Average Humidity 41    
Maximum Humidity 68    
Minimum Humidity 26    
Precipitation  
Precipitation 0.00 in - - ()
Sea Level Pressure  
Sea Level Pressure 29.79 in    
Wind  
Wind Speed 9 mph ()    
Max Wind Speed 18 mph    
Max Gust Speed -    
Visibility 8.4 miles    
Events      
Averages and records for this station are not official NWS values.
T = Trace of Precipitation, MM = Missing Value Source: Averaged Metar Reports

Daily Weather History Graph

Daily Weather History Graph

Search for Another Location

Airport or City:

Trip Planner

Search our weather history database for the weather conditions in past years. The results will help you decide how hot, cold, wet, or windy it might be!

Date:

Astronomy

Apr. 18, 2014 Rise Set
Actual Time 5:29 AM CST 5:53 PM CST
Civil Twilight 5:08 AM CST 6:14 PM CST
Nautical Twilight 4:43 AM CST 6:39 PM CST
Astronomical Twilight 4:18 AM CST 7:05 PM CST
Moon 9:14 PM CST (4/18) 8:14 AM CST (4/18)
Length of Visible Light 13h 06m
Length of Day
12h 23m
Waning Gibbous, 86% of the Moon is Illuminated
Apr 18
Waning Gibbous
Apr 22
Last Quarter
Apr 29
New
May 6
First Quarter
May 14
Full

Hourly Weather History & Observations

Time (CST) Temp. Heat Index Dew Point Humidity Pressure Visibility Wind Dir Wind Speed Gust Speed Precip Events Conditions
6:00 AM 70 °F - 58 °F 58% 29.81 in 12 mi Calm Calm - -   Clear
6:00 AM 69.8 °F - 59.0 °F 68% 29.80 in - Calm Calm - N/A   Clear
7:00 AM 73.4 °F - 59.0 °F 61% 29.83 in - NNE 4.6 mph - N/A   Clear
8:00 AM 84.2 °F 85.0 °F 62.6 °F 48% 29.84 in - NE 5.8 mph - N/A   Clear
9:00 AM 89 °F - 62 °F 31% 29.84 in 12 mi NE 12.7 mph - -   Clear
9:00 AM 89.6 °F 90.1 °F 62.6 °F 40% 29.84 in - NE 12.7 mph - N/A   Clear
10:00 AM 91.4 °F 92.1 °F 62.6 °F 38% 29.83 in - East 13.8 mph - N/A   Clear
11:00 AM 93.2 °F 94.1 °F 62.6 °F 36% 29.82 in 6.2 mi ENE 17.3 mph - N/A   Scattered Clouds
12:00 PM 94 °F - 64 °F 27% 29.80 in 12 mi ENE 15.0 mph - -   Scattered Clouds
12:00 PM 93.2 °F 94.9 °F 64.4 °F 38% 29.79 in 6.2 mi ENE 15.0 mph - N/A   Scattered Clouds
1:00 PM 95.0 °F 97.0 °F 64.4 °F 36% 29.77 in 6.2 mi East 15.0 mph - N/A   Scattered Clouds
2:00 PM 93.2 °F 94.9 °F 64.4 °F 38% 29.74 in 6.2 mi ENE 13.8 mph - N/A   Scattered Clouds
3:00 PM 95 °F - 64 °F 26% 29.77 in 12 mi East 13.8 mph - -   Scattered Clouds
3:00 PM 95.0 °F 97.0 °F 64.4 °F 36% 29.74 in 6.2 mi East 13.8 mph - N/A   Scattered Clouds
4:00 PM 93.2 °F 94.1 °F 62.6 °F 36% 29.73 in 6.2 mi ENE 18.4 mph - N/A   Scattered Clouds
5:00 PM 91.4 °F 92.1 °F 62.6 °F 38% 29.74 in 6.2 mi ENE 17.3 mph - N/A   Scattered Clouds
6:00 PM 87 °F - 63 °F 34% 29.80 in 12 mi ENE 15.0 mph - -   Scattered Clouds
6:00 PM 86.0 °F 86.6 °F 62.6 °F 45% 29.77 in 6.2 mi ENE 15.0 mph - N/A   Scattered Clouds
7:00 PM 86.0 °F 86.6 °F 62.6 °F 45% 29.78 in - East 13.8 mph - N/A   Clear
8:00 PM 84.2 °F 85.0 °F 62.6 °F 48% 29.80 in - East 17.3 mph - N/A   Clear